Location: Gairloch Mountain Observatory
(46.1383°N, 60.9640°W)
Time: 11:29:15
(UTC-03:00)

CENTAUR R/B - Visible Passes

Search period start: 25 April 2015 00:00
Search period end: 05 May 2015 00:00
Orbit: 884 x 1305 km, 63.5° (Epoch: 21 April)

Date Brightness Start Highest point End Pass type
(mag) Time Alt. Az. Time Alt. Az. Time Alt. Az.
25 Apr 2.6 00:52:56 71° ENE 00:52:56 71° ENE 00:59:16 10° NE visible
25 Apr 4.0 02:40:04 20° W 02:43:46 33° NNW 02:50:06 10° NNE visible
25 Apr 4.9 04:31:54 10° NW 04:36:49 20° N 04:42:03 10° NE visible
26 Apr 3.2 00:05:43 42° E 00:05:43 42° E 00:10:52 10° NE visible
26 Apr 3.5 01:52:51 33° W 01:55:08 44° NW 02:01:52 10° NNE visible
26 Apr 4.8 03:42:44 10° WNW 03:47:48 21° NNW 03:53:11 10° NE visible
26 Apr 3.8 23:18:26 25° E 23:18:26 25° E 23:22:12 10° NE visible
27 Apr 2.8 01:05:34 55° W 01:06:41 64° NW 01:13:40 10° NE visible
27 Apr 4.5 02:53:29 10° WNW 02:58:52 25° NNW 03:04:37 10° NNE visible
27 Apr 5.0 04:47:07 10° NW 04:52:12 20° N 04:57:39 10° NE visible
27 Apr 4.3 22:31:03 15° E 22:31:03 15° E 22:32:56 10° ENE visible
28 Apr 2.4 00:18:10 82° S 00:18:27 86° SE 00:25:26 10° NE visible
28 Apr 4.2 02:05:18 14° W 02:10:02 31° NNW 02:16:16 10° NNE visible
28 Apr 5.0 03:58:15 10° NW 04:03:10 20° N 04:08:24 10° NE visible
28 Apr 2.6 23:30:40 54° ESE 23:30:40 54° ESE 23:37:04 10° NE visible
29 Apr 3.7 01:17:46 23° W 01:21:22 41° NW 01:28:01 10° NNE visible
29 Apr 4.9 03:09:08 10° WNW 03:14:09 21° N 03:19:28 10° NE visible
29 Apr 5.1 05:01:54 10° NNW 05:07:32 24° NNE 05:13:36 10° ENE visible
29 Apr 3.2 22:42:59 33° ESE 22:42:59 33° ESE 22:48:29 10° NE visible
30 Apr 3.1 00:30:04 34° WSW 00:32:52 58° NW 00:39:49 10° NE visible
30 Apr 4.7 02:19:52 10° WNW 02:25:11 24° NNW 02:30:50 10° NNE visible
30 Apr 5.1 04:13:22 10° NW 04:18:33 21° N 04:24:06 10° ENE visible
30 Apr 3.8 21:55:04 19° ESE 21:55:04 19° ESE 21:59:25 10° ENE visible
30 Apr 2.5 23:42:08 41° SW 23:44:34 86° NW 23:51:35 10° NE visible
01 May 4.4 01:30:40 10° W 01:36:19 29° NNW 01:42:25 10° NNE visible
01 May 5.1 03:24:34 10° NW 03:29:31 20° N 03:34:46 10° NE visible
01 May 4.9 05:16:23 10° NNW 05:22:43 30° NNE 05:29:33 10° E visible
01 May 4.2 21:07:01 10° ESE 21:07:12 10° ESE 21:07:52 10° E visible
01 May 2.5 22:53:48 34° S 22:56:29 61° ESE 23:03:16 10° NE visible
02 May 3.9 00:41:37 10° WSW 00:47:36 38° NW 00:54:10 10° NNE visible
02 May 5.1 02:35:30 10° NW 02:40:29 20° N 02:45:45 10° NE visible
02 May 5.1 04:28:06 10° NNW 04:33:50 25° NNE 04:40:04 10° ENE visible
02 May 3.0 22:04:39 18° S 22:08:35 37° ESE 22:14:45 10° NE visible
02 May 3.3 23:52:52 10° WSW 23:59:04 53° NW 00:05:57 10° NE visible
03 May 4.9 01:46:16 10° WNW 01:51:30 23° NNW 01:57:03 10° NE visible
03 May 5.2 03:39:37 10° NW 03:44:53 21° NNE 03:50:33 10° ENE visible
03 May 3.6 21:16:18 10° SSE 21:20:49 22° ESE 21:25:51 10° ENE visible
03 May 2.7 23:04:26 10° SW 23:10:43 78° NW 23:17:44 10° NE visible
04 May 4.6 00:57:02 10° W 01:02:36 27° NNW 01:08:36 10° NNE visible
04 May 5.2 02:50:53 10° NW 02:55:51 20° N 03:01:10 10° NE visible
04 May 4.8 04:42:32 10° NNW 04:48:59 32° NNE 04:55:58 10° E visible
04 May 2.5 22:16:26 10° SSW 22:22:35 69° ESE 22:29:27 10° NE visible
